Regional Weather Roundup
Issued by NWS Pendleton, OR

Current Version | Previous Version | Text Only | Print | Product List | Glossary On
Versions: 1 2 3 4 5 6 7 8 9 10 11 12 13 14 15 16 17 18 19 20 21 22 23 24 25 26 27 28 29 30 31 32 33 34 35 36 37 38 39 40 41 42 43 44 45 46 47 48 49 50
000
ASUS46 KPDT 271025
RWRPDT
PENDLETON REGIONAL WEATHER ROUNDUP
NATIONAL WEATHER SERVICE PENDLETON OREGON
200 AM PST TUE JAN 27 2015

NOTE: FAIR INDICATES FEW OR NO CLOUDS BELOW 12,000 FEET WITH NO
SIGNIFICANT WEATHER AND/OR OBSTRUCTIONS TO VISIBILITY.

# INDICATES UNOFFICIAL STATION AND DATA

WAZ520-271110-
EAST SLOPES OF WASHINGTON CASCADES

CITY            SKY/WX      TMP DP  RH  WIND    PRES   REMARKS
#BULLFROG 2SW   N/A         36  36  100 S1      27.58F
#BUMPING DAM    N/A         31  N/A N/A CALM    N/A
#CLE ELUM HS    N/A         31  30  96  CALM    29.95S
#CLE ELUM LAKE  N/A         40  33  76  CALM    29.98F
#CLIFFDEL 2NW   N/A         31  30  96  CALM    N/A
#GLENWOOD       N/A         28  27  96  CALM    30.04F
#MANASTASH CYN  N/A         35  28  75  CALM    29.95S
#NELSON         N/A         31  30  96  CALM    30.07F
#NELSON 3SW     N/A         35  33  92  CALM    30.24S
#NILE           N/A         34  31  89  W3      29.30F
#RONALD 2NW     N/A         37  29  72  CALM    29.84F
#SNOWDEN        N/A         37  30  75  CALM    N/A
#TROUT LAKE 1NE N/A         31  30  96  CALM    30.04S
$$

WAZ521-271110-
SIMCOE HIGHLANDS

CITY            SKY/WX      TMP DP  RH  WIND    PRES   REMARKS
#BICKLETON HS   N/A         47  16  28  CALM    N/A
#CENTERVILLE 4W N/A         34  32  92  CALM    29.74S
#CENTERVILLE 1SWN/A         31  29  92  CALM    30.02F
#GOLDENDALE     N/A         32  32  100 NW5     N/A
#GOLDENDALE 1NE N/A         30  30  100 CALM    N/A
#GOLDENDALE 1S  N/A         38  36  92  CALM    29.97S
#GOLDENDALE 5WNWN/A         31  30  96  CALM    30.03S
#GOODNOE HILLS  N/A         33  31  92  CALM    N/A
#LYLE 6NE       N/A         35  35  100 CALM    30.01F
$$

WAZ026-271110-
KITTITAS VALLEY

CITY            SKY/WX      TMP DP  RH  WIND    PRES   REMARKS
ELLENSBURG AP   FOG         33  31  92  MISG    29.99S VSB 1/4
#ELLENSBURG CWU N/A         31  30  96  CALM    30.00S
#ELLENSBURG 3NE N/A         31  30  96  CALM    30.00S
#ELLENSBURG 1E  N/A         31  30  96  CALM    N/A
#KITTITAS 4N    N/A         31  29  92  CALM    28.30S
#KITTITAS 3S    N/A         30  29  96  E1      30.05S
#THORP 6N       N/A         37  36  96  N6      30.04S
$$

WAZ027-271110-
YAKIMA VALLEY

CITY            SKY/WX      TMP DP  RH  WIND    PRES   REMARKS
YAKIMA AIRPORT  FOG         34  32  92  SW3     30.02S VSB 3/4
YAKIMA-VAGABOND FOG         33  33  100 CALM    30.01R VSB 3/8
#DONALD 2NE     N/A         34  34  100 CALM    28.87S
#GRANDVIEW      N/A         35  34  96  CALM    30.08S
#MABTON         N/A         36  36  100 CALM    30.03F
#MOXEE 2E       N/A         37  37  100 CALM    29.99R
#NACHES 2SW     N/A         33  32  96  CALM    29.98S
#OUTLOOK DOT    N/A         N/A N/A N/A CALM    N/A
#SELAH 8E       N/A         33  33  100 SE2     N/A
#TERRACE HTS    N/A         34  33  96  CALM    30.03S
#TOPPENISH      N/A         35  34  96  CALM    29.98R
#WAPATO 4NE     N/A         34  34  100 CALM    28.87S
#WEST VALLEY    N/A         32  31  96  CALM    30.04F
#WHITE SWAN 5E  N/A         34  33  96  CALM    30.07S
$$

WAZ028-271110-
LOWER COLUMBIA BASIN...WASHINGTON

CITY            SKY/WX      TMP DP  RH  WIND    PRES   REMARKS
HANFORD         FOG         36  36  100 N2      30.03S VSB<1/4
PASCO           CLOUDY      37  37  100 SE3     30.06S FOG
PROSSER AWOS    N/A         36  36  100 NW3     30.07S
RICHLAND AWOS   CLOUDY      37  N/A N/A SW3     30.06S FOG
#BASIN CITY 5SW N/A         37  36  96  NE2     30.04S
#BENTON CITY    N/A         35  34  96  W2      29.97S
#CONNELL 5N     N/A         34  34  100 CALM    30.06S
#CONNELL 5NW    N/A         34  34  100 CALM    30.02F
#ELTOPIA 6NW    N/A         35  35  100 CALM    29.00R
#KAHLOTUS       N/A         31  31  100 E2      30.06F
#KENNEWICK      N/A         36  36  100 S1      27.58F
#KENNEWICK 3S   N/A         37  36  96  CALM    30.07S
#PASCO-BROADMOORN/A         38  36  92  CALM    29.97S
#PATERSON       N/A         36  35  96  CALM    30.06R
#PROSSER        N/A         34  33  96  CALM    30.06S
#SAGEMOOR 2W    N/A         36  35  96  CALM    29.91S
#TOUCHET 2S     N/A         35  34  96  CALM    30.06S
#WEST PASCO     N/A         38  36  92  CALM    30.00S
$$

WAZ029-271110-
FOOTHILLS OF THE BLUES...WASHINGTON

CITY            SKY/WX      TMP DP  RH  WIND    PRES   REMARKS
WALLA WALLA AP  FOG         35  34  96  N3      30.01S VSB 1/4
#DAYTON SCHOOL  N/A         32  28  85  W1      30.00F
#LOWDEN 2SE     N/A         35  34  96  CALM    30.01S
#PLEASANT VIEW 1N/A         31  30  96  CALM    30.10F
#PRESCOTT       N/A         34  33  96  CALM    30.03F
#SUDBURY        N/A         38  N/A N/A CALM    N/A
#WHITMAN COLLEGEN/A         34  33  96  W2      30.11R
#WAITSBURG 5S   N/A         30  30  100 CALM    30.14S
#WAITSBURG 8N   N/A         32  24  72  S1      29.88S
#WALLA WALLA 5E N/A         32  31  96  S1      N/A
#WALLA WALLA U  N/A         36  35  96  CALM    30.06S
#WHITMAN MISSIONN/A         35  34  96  CALM    30.08R
$$

WAZ030-271110-
BLUE MOUNTAINS...WASHINGTON

CITY            SKY/WX      TMP DP  RH  WIND    PRES   REMARKS
#SKI BLUEWOOD   N/A         37  32  82  SW2     30.01F
$$

ORZ009-041-WAZ024-271110-
COLUMBIA RIVER GORGE

CITY            SKY/WX      TMP DP  RH  WIND    PRES   REMARKS
HOOD RIVER AP   CLOUDY      39  39  100 CALM    30.04S FOG
THE DALLES AP   CLOUDY      40  38  92  NE5     30.05S FOG
#ARLINGTON AIRPON/A         35  35  100 CALM    30.02S
#ARLINGTON HS   N/A         37  36  96  CALM    29.99S
#CELILO DOT     N/A         40  36  85  CALM    N/A
#LYLE           N/A         41  39  93  CALM    30.06F
#MOSIER 1S      N/A         38  37  96  CALM    30.06S
#MURDOCK        N/A         41  40  96  CALM    30.07F
#RUFUS DOT      N/A         39  36  89  CALM    N/A

$$

ORZ510-271110-
NORTH CENTRAL OREGON

CITY            SKY/WX      TMP DP  RH  WIND    PRES   REMARKS
#CHENOWITH 1W   N/A         34  34  100 E2      N/A
#COW CYN RST AREN/A         48  37  65  CALM    N/A
#DUFUR 9E       N/A         47  36  65  CALM    30.06F
#KENT DOT       N/A         44  32  62  S3      N/A
#MAUPIN SCHOOL  N/A         36  34  92  CALM    30.03F
#MORO SCHOOL    N/A         34  34  100 CALM    30.00F
#SHANIKO 5WSW   N/A         49  28  44  SE7     N/A
#SHANIKO 4NW    N/A         51  35  54  S3      29.99F
#TYGH VALLEY 2NEN/A         35  34  96  CALM    30.05S
#WAPANITIA AIRPON/A         30  29  96  CALM    30.06S
#WASCO DOT      N/A         36  34  92  NE1     N/A
#WASCO AIRPORT  N/A         35  33  92  W6      N/A
#WASCO 5NE      N/A         34  33  96  CALM    30.06S
$$

ORZ511-271110-
CENTRAL OREGON

CITY            SKY/WX      TMP DP  RH  WIND    PRES   REMARKS
BEND AIRPORT    MOCLDY      39  30  70  S6      30.02S
PRINEVILLE AP   MOCLDY      36  32  85  E5      30.02S
REDMOND AIRPORT MOCLDY      33  30  89  SE3     30.00F
#BEND 1SW       N/A         38  32  79  SW2     N/A
#BEND-AWBREY    N/A         46  34  63  SW5     29.94F
#BEND-KIM LN    N/A         42  33  70  SW8     29.97F
#CROOKED RVR RANN/A         39  33  79  S1      29.95S
#CULVER         N/A         38  34  85  CALM    29.96S
#LAKE BILLY CHINN/A         41  27  57  CALM    30.11S
#POWELL BUTTE 3EN/A         44  34  68  S2      N/A
#POWELL BUTTE   N/A         42  33  70  SE3     29.63F
#PRINEVILLE 3N  N/A         32  30  92  NE1     29.98S
#WARM SPRINGS   N/A         33  32  96  CALM    29.98F

$$


ORZ509-271110-
EAST SLOPES OF OREGON CASCADES

CITY            SKY/WX      TMP DP  RH  WIND    PRES   REMARKS
#BLUE BOX PASS  N/A         47  -5  11  CALM    N/A
#CAMP SHERMAN   N/A         28  26  92  CALM    30.03F
#LA PINE DOT    N/A         27  25  92  CALM    N/A
#LA PINE 4NW    N/A         26  23  88  CALM    30.11F
#LAVA BUTTE DOT N/A         35  29  78  CALM    N/A
#MT BACHELOR-MIDN/A         41   9  26  NE12    N/A    WCI 34
#SISTERS AIRPOR N/A         28  28  100 CALM    30.17S
#SISTERS 1NW    N/A         30  28  92  N3      N/A
#SISTERS 3N     N/A         29  23  78  CALM    30.01F
#SUNRIVER       N/A         28  26  92  CALM    29.97S
#TUMALO 3W      N/A         46  28  49  CALM    29.82F
#WANOGA BUTTE D N/A         48  12  23  NE1     N/A

$$

ORZ044-271110-
LOWER COLUMBIA BASIN...OREGON

CITY            SKY/WX      TMP DP  RH  WIND    PRES   REMARKS
HERMISTON       FOG         36  35  96  CALM    30.04S VSB 1/2
#BOARDMAN 3W    N/A          0   0  100 CALM    29.79S
#BOARDMAN 8SW   N/A         36  36  100 CALM    30.07R
#ECHO 8SW       N/A         36  36  100 CALM    30.01S
#IONE SCHOOL    N/A         35  26  69  CALM    30.02R
#IRRIGON 4NW    N/A         37  37  100 CALM    N/A
#UMATILLA SCHOOLN/A         33  33  100 CALM    30.12R
#UMATILLA       N/A         37  34  89  CALM    30.03S
$$

ORZ507-271110-
NORTHERN FOOTHILLS OF THE BLUES

CITY            SKY/WX      TMP DP  RH  WIND    PRES   REMARKS
PENDLETON AIRPT FRZFOG      31  30  96  NW5     30.00R VSB 1/4
#ADAMS 3WNW     N/A         28  27  96  CALM    30.05S
#ATHENA         N/A         29  28  96  CALM    30.07S
#CAYUSE         N/A         31  30  96  CALM    30.05R
#HELIX SCHOOL   N/A         30  29  96  CALM    30.03S
#HELIX 3N       N/A         33  30  89  NW2     29.95S
#HELIX 6SW      N/A         28  27  96  CALM    30.00
#HOLDMAN 5SE    N/A         31  30  96  CALM    30.01S
#HOLDMAN 6E     N/A         27  26  96  CALM    29.87S
#M-F FERNDALE   N/A         35  34  96  CALM    30.02S
#M-F GROVE ELEM N/A         34  32  92  CALM    30.01R
#M-FREEWATER 5SEN/A         31  30  96  CALM    30.01R
#PENDLETON DNTN N/A         35  33  92  NW2     28.82S
#PDT AQUATIC CTRN/A         35  33  92  W2      30.01S
#PENDLETON 5NE  N/A         28  27  96  CALM    29.96S
#PDT SUNRIDGE   N/A         33  32  96  CALM    30.02S
#PENDLETON 7NW  N/A         34  31  89  CALM    27.17R
#PILOT ROCK     N/A         33  30  89  CALM    30.00S
#TUTUILLA       N/A         32  31  96  CALM    30.04S
#UMAPINE 2E     N/A         35  34  96  CALM    30.01R
#WESTON SCHOOL  N/A         36  33  89  W1      29.98R

$$

ORZ508-271110-
SOUTHERN FOOTHILLS OF THE BLUES

CITY            SKY/WX      TMP DP  RH  WIND    PRES   REMARKS
LEXINGTON       FOG         34  34  100 CALM    30.02R VSB<1/4
#AJAX           N/A         40  35  82  CALM    29.92S
#CONDON SCHOOL  N/A         44  37  76  CALM    29.95F
#CONDON 5W      N/A         50  35  56  S6      29.96F
#HEPPNER EOC    N/A         44  36  73  E7      29.98S
#HEPPNER 4NE    N/A         46  35  65  E3      29.96F
#LEXINGTON 2SE  N/A         32  30  92  E1      29.97R
#MIKKALO        N/A         32  32  100 CALM    30.00F
#OLEX 4N        N/A         35  34  96  CALM    30.02S
#RUGGS 5NE      N/A         42  33  70  S2      30.11S
#RUGGS 2SW      N/A         50  35  56  SW14    29.96S

$$

ORZ502-503-271110-
BLUE MOUNTAINS

CITY            SKY/WX      TMP DP  RH  WIND    PRES   REMARKS
MEACHAM         PTCLDY      40  32  73  CALM    30.02S
#BATTLE MTN DOT N/A         37  34  89  S5      N/A
#HARDMAN 10S    N/A         41  33  73  CALM    30.10S
#HEPPNER 15SE   N/A         40  31  70  E1      29.91S
#LADD CYN SMT   N/A         33  29  85  SW10    N/A
#LADD CREEK ODOTN/A         38  32  79  S16     N/A    WCI 29
#LONG CREEK HS  N/A         38  36  92  CALM    29.97F
#N POWDER DOT   N/A         29  29  100 CALM    N/A
#PIKES PEAK     N/A         57  28  33  S6      27.99S
#TOLLGATE       N/A         44  32  62  SW2     29.96S
#TROY SCHOOL    N/A         36  33  89  W2      29.98F
#UKIAH          N/A         27  26  96  CALM    30.14S
#WESTON 4E      N/A         51  35  54  E9      29.90S
$$

ORZ505-271110-
JOHN DAY BASIN

CITY            SKY/WX      TMP DP  RH  WIND    PRES   REMARKS
JOHN DAY        MOCLDY      40  32  73  E7      30.02F
#JOHN DAY KJDY  N/A         35  29  78  CALM    30.03F
#DAYVILLE SCHOOLN/A         36  32  85  CALM    30.01S
#MITCHELL SCHOOLN/A         41  36  82  CALM    30.15S
#MONUMENT HS    N/A         32  29  89  CALM    30.04F
#MT. VERNON 5SE N/A         41  31  67  CALM    29.97F
#WINLOCK        N/A         39  32  76  CALM    30.09S
$$

ORZ506-271110-
OCHOCO AND JOHN DAY HIGHLANDS

CITY            SKY/WX      TMP DP  RH  WIND    PRES   REMARKS
#HORSE RIDGE DO N/A         29  26  88  SE1     N/A
#KEYES SMT DOT  N/A         38  33  82  SE1     N/A
#PAULINA SCHOOL N/A         35  33  92  CALM    30.01F
#PINE MTN OBS   N/A         49  21  33  NW5     N/A
#PRAIRIE CITY   N/A         27  24  88  CALM    30.22F
#SENECA         N/A         27  N/A N/A CALM    N/A
#SENECA 9NW     N/A         26  25  96  CALM    30.11F
$$

ORZ049-271110-
GRANDE RONDE VALLEY

CITY            SKY/WX      TMP DP  RH  WIND    PRES   REMARKS
LA GRANDE       PTCLDY      45  30  55  S18     30.04S WCI 37
#COVE           N/A         35  29  78  CALM    30.03S
#COVE SCHOOL    N/A         36  32  85  CALM    30.03S
#COVE 6NW       N/A         39  33  79  SE5     30.13S
#ELGIN 3N       N/A         27  22  81  CALM    29.88R
#ELGIN 1E       N/A         31  27  85  CALM    N/A
#IMBLER SCHOOL  N/A         32  29  89  CALM    30.02S
#ISLAND CITY 4N N/A         40  40  100 CALM    30.02S
#LADD CYN DOT   N/A         43  32  65  SE16G26 N/A    WCI 35
#UNION 1S       N/A         41  35  79  S15     30.01S WCI 33
$$

ORZ050-271110-
WALLOWA COUNTY

CITY            SKY/WX      TMP DP  RH  WIND    PRES   REMARKS
JOSEPH AIRPORT  MOCLDY      30  30  100 CALM    30.07S
#ENTERPRISE AP  N/A         29  26  88  CALM    30.00S
#ENTERPRISE HS  N/A         27  26  96  CALM    30.08S
#IMNAHA SCHOOL  N/A         36  33  89  S2      30.05R
#JOSEPH 3N      N/A         27  27  100 CALM    30.09S
#JOSEPH 3W      N/A         33  27  78  CALM    29.88S
#LOSTINE        N/A         26  25  96  CALM    29.98S
#MT HOWARD 8000 N/A         44  19  36  S3      30.13R
#PROMISE 1S     N/A         34  32  92  CALM    30.17F
#SHEEP RDG 7000 N/A         50  18  28  CALM    29.85F
#WALLOWA SCHOOL N/A         29  28  96  CALM    31.16S



$$



USA.gov is the U.S. government's official web portal to all federal, state and local government web resources and services.